CZ-6A DEB, 54623

Orbit data source: Space-Track

CZ-6A DEB, 54623 is space debris in SSO originally from a launch on Fri, 11 Nov 2022 UTC launched from the Taiyaun Space Center, China (TSC). Debris objects in space refer to the collection of defunct objects orbiting the Earth. Examples of debris include non-operational satellites, rocket bodies, and fragments generated from explosions, collisions, or faulty payload assembly.

Loading next visibility...
Identifier
54623, 2022-151NZ
Orbit
SSO
Country
Flag of CNCN / PRC
Related business
Manufacturer
SAST
Mission
Spacecraft
Bus & Motor
Unknown
Mass
Unknown
Launch date (UTC)
2022-11-11 (4 years ago)
Launch vehicle
Unknown
Launch site
Taiyaun Space Center, China (TSC)
Object type
Payload
Rocket body
Debris
Shape & HBR
Unknown shape, 0.2 m
Radar Cross Section
Medium (>0.1 m² and <1 m²)

Expand to show TLE details & history
Last TLE update: 1 day ago

TLE from 1 day ago
0 CZ-6A DEB
1 54623U 22151NZ  26205.97000339  .00000600  00000-0  34401-3 0  9998
2 54623  98.8432 210.1813 0041630 223.3860 136.4033 14.12749892189230
Epoch: 2026-07-24T23:16Z
TLE epoch observation values (Epoch: 2026-07-24T23:16:48.292Z)
Latitude
-0.00002°
Longitude
-81.70892°
Altitude
874.733 km
Speed
7.404 km/s
True Right ascension
14h 00m 43s
True Declination
0° 00' 00"
Sunlit
Object was in daylight at epoch
Visualization orbit readout
Latitude
Unknown
Longitude
Unknown
Altitude
Unknown
Speed
Unknown
Apparent Right ascension
Unknown
Apparent Declination
Unknown
Sunlit
N/A
Visualization observer readout
Local Sidereal Time
16:11:33
Azimuth
Unknown
Elevation
Unknown
Doppler factor
Unknown
Orbital elements
Apogee altitude
877.23 km
Perigee altitude
817.073 km
Semi-major axis
7,225.289 km
Eccentricity
0.00416
Inclination
98.8432°
RAAN
210.1813°
Arg. of periapsis
223.386°
True anomaly
136.73102°
Mean anomaly
136.4033°
Eccentric anomaly
136.56728°
Mean motion
3.53395 °/min
Orbital period
101.87 mins
BSTAR
0.00034401
Loading maneuver chart data...
Computing Atmospheric mass density...
Loading historical data...
Loading historical data...
Loading historical data...
Loading historical data...
Loading historical data...
Loading historical data...
Loading historical data...

Documentation

Showing up to 5 results
|